[[[{"header":{"parameterUnit":"kt","parameterCategory":2,"dx":1,"dy":1,"la1":30.253999710083008,"la2":30.299108505249023,"lo1":-89.0895004272461,"lo2":-89.04439544677734,"nx":28,"ny":28,"refTime":"2022-10-11T21:00:00:Z","depth":0,"parameterNumber":1,"parameterNumberName":"U-component_of_WINDS"},"data":[5.7452,5.7623,5.7662,5.7875,5.7947,5.81,5.8167,5.8259,5.8342,5.853,5.8645,5.8703,5.8803,5.8951,5.9079,5.9103,5.9155,5.9187,5.9209,5.9029,5.9006,5.8985,5.8947,5.9197,5.9198,5.9391,5.9393,5.9394,5.7318,5.7389,5.7513,5.766,5.7767,5.7759,5.7876,5.7966,5.8104,5.8207,5.8323,5.8492,5.8632,5.8722,5.8864,5.8946,5.8952,5.8982,5.8977,5.8993,5.8801,5.876,5.8975,5.8975,5.8975,5.8975,5.8975,5.8975,5.7083,5.7183,5.7294,5.743,5.7514,5.7612,5.7716,5.7783,5.7906,5.8057,5.808,5.8237,5.8349,5.8539,5.8612,5.8737,5.8711,5.8757,5.8769,5.878,5.8788,5.8505,5.8763,5.8762,5.8762,5.8761,5.8761,0,5.6923,5.6949,5.707,5.7203,5.7304,5.7411,5.7517,5.7582,5.765,5.7749,5.7895,5.7987,5.8167,5.8311,5.8452,5.852,5.8524,5.8528,5.8561,5.8552,5.8527,5.8544,5.8231,5.8521,5.8519,5.8518,5.8517,5.8516,5.6691,5.6803,5.6938,5.7018,5.7085,5.7213,5.7298,5.735,5.7438,5.7576,5.7664,5.7807,5.7925,5.8154,5.8234,5.8369,5.8373,5.848,5.8394,5.8381,5.8378,5.8371,5.8383,5.8496,5.8498,5.8501,5.8502,0,5.6557,5.6619,5.6806,5.6929,5.6963,5.7079,5.7185,5.7288,5.7342,5.7493,5.7531,5.7618,5.7761,5.7824,5.8001,5.803,5.8225,5.8224,5.8186,5.819,5.8293,5.8283,5.8614,5.8661,5.84,5.8403,5.8405,0,5.6384,5.653,5.6615,5.672,5.6884,5.6932,5.7093,5.7156,5.7252,5.7371,5.7384,5.7495,5.7558,5.7679,5.7722,5.7892,5.7925,5.7958,5.7968,5.7958,5.7954,5.8007,5.7995,5.7983,5.7981,5.798,5.7978,0,5.6169,5.6384,5.6555,5.6614,5.676,5.684,5.6904,5.7012,5.7095,5.7212,5.7267,5.7401,5.7475,5.7579,5.7632,5.7572,5.7841,5.7769,5.7875,5.7874,5.7933,5.7928,5.8204,5.7976,5.7976,5.7975,5.7975,0,5.604,5.6156,5.6393,5.6515,5.657,5.6682,5.6816,5.6927,5.704,5.7073,5.7167,5.7184,5.7336,5.726,5.7471,5.7377,5.745,5.7495,5.7503,5.7522,5.7436,5.7585,5.7839,5.787,5.7538,5.7534,5.7531,0,5.5777,5.6033,5.6075,5.63,5.6427,5.6433,5.6559,5.6658,5.6713,5.683,5.6891,5.7024,5.698,5.7031,5.7127,5.7196,5.7318,5.7181,5.7352,5.7358,5.7323,5.7558,5.7581,5.7776,5.7485,5.749,5.7494,0,5.5582,5.5756,5.5793,5.5863,5.6001,5.6107,5.6251,5.6392,5.6468,5.6577,5.67,5.6888,5.6863,5.6946,5.6974,5.7071,5.7237,5.7032,5.7035,5.7068,5.7467,5.7488,5.7521,5.7235,5.7241,5.7245,5.7457,0,5.5376,5.5511,5.5613,5.5765,5.5857,5.6,5.6065,5.6152,5.6169,5.6224,5.6406,5.6504,5.6649,5.6702,5.6719,5.692,5.6897,5.6869,5.6801,5.6953,5.7025,5.7054,5.6689,5.6687,5.6686,5.6684,0,0,5.511,5.5305,5.5347,5.5487,5.5567,5.5571,5.5719,5.5797,5.5956,5.6011,5.5973,5.6252,5.6333,5.6547,5.66,5.6658,5.6701,5.6644,5.688,5.6901,5.6921,5.6997,5.7026,5.6682,5.6681,5.6681,5.6681,0,5.5049,5.5128,5.5272,5.5355,5.5479,5.5529,5.5563,5.5687,5.5729,5.5906,5.5909,5.6026,5.6246,5.6333,5.6405,5.662,5.6616,5.6659,5.6753,5.6864,5.6887,5.6908,5.6986,5.7014,5.6677,5.6677,5.6678,0,5.4869,5.4959,5.5035,5.5214,5.5295,5.5425,5.5369,5.5508,5.5606,5.5604,5.5781,5.5844,5.5965,5.6158,5.6247,5.6215,5.6535,5.6445,5.6455,5.6467,5.6578,5.6606,5.663,5.6304,5.6302,5.63,0,0,5.4807,5.4932,5.5045,5.5206,5.5257,5.5333,5.5408,5.5433,5.554,5.5583,5.5664,5.5769,5.5898,5.5982,5.6106,5.6308,5.6338,5.6396,5.6414,5.6428,5.6447,5.6561,5.6589,5.6295,5.6294,5.6294,0,0,5.4778,5.4914,5.4912,5.5107,5.5208,5.533,5.5427,5.5428,5.5546,5.5536,5.5586,5.5616,5.5797,5.586,5.5772,5.6083,5.6014,5.6037,5.6036,5.6059,5.6077,5.6059,5.573,0,0,0,0,0,5.4747,5.4897,5.4893,5.4936,5.5163,5.5332,5.5361,5.5405,5.5355,5.5431,5.5499,5.5489,5.5823,5.5747,5.5789,5.5886,5.6218,5.6231,5.6244,5.6292,5.6315,5.6335,0,0,0,0,0,0,5.4764,5.4816,5.489,5.5017,5.5069,5.5327,5.5253,5.5269,5.5348,5.5343,5.5476,5.5493,5.5534,5.5728,5.5765,5.5857,5.5717,5.6223,5.6235,5.6245,5.63,5.6319,5.6335,0,0,0,0,0,5.4778,5.4819,5.5172,5.5016,5.506,5.5154,5.5247,5.526,5.5322,5.5428,5.5444,5.5348,5.5535,5.557,5.5751,5.5839,5.5692,5.5705,5.6231,5.624,5.6248,5.6309,0,0,0,0,0,0,5.4788,5.4833,5.5182,5.5197,5.4962,5.514,5.5169,5.5253,5.5402,5.542,5.5301,5.5296,5.5538,5.5564,5.5591,5.583,5.5671,5.5685,5.5694,5.6238,5.6245,5.6251,0,0,0,0,0,0,5.4811,5.4846,5.519,5.512,5.5127,5.5127,5.5153,5.5313,5.5404,5.5267,5.5268,5.5297,5.5499,5.5561,5.5582,5.5829,5.5655,5.5668,5.5678,5.5684,5.6243,5.6249,0,0,0,0,0,0,5.4827,5.4857,5.5116,5.5122,5.5128,5.5304,5.5269,5.55,5.5342,5.5261,5.5329,5.5324,5.5496,5.5518,5.5576,5.5815,5.5826,5.5656,5.5665,5.5671,5.5675,0,0,0,0,0,0,0,5.4839,5.4627,5.5091,5.5124,5.5129,5.5339,5.5343,5.5347,5.5341,5.5336,5.5331,5.5326,5.5579,5.5594,5.5608,5.5803,0,0,5.5654,5.5661,0,0,0,0,0,0,0,0,5.4616,5.4625,5.5092,5.5095,5.5098,5.534,5.5343,5.5346,5.534,5.5336,5.5332,5.5328,5.5583,5.5595,5.5607,0,0,0,0,0,0,0,0,0,0,0,0,0,0,0,5.5092,5.5095,0,5.534,5.5343,5.5346,5.534,5.5336,5.5333,5.533,5.5586,5.5596,5.5606,0,0,0,0,0,0,0,0,0,0,0,0,0,0,0,0,0,0,0,0,0,0,0,0,0,0,0,0,0,0,0,0,0,0,0,0,0,0,0,0,0,0,0,0,0,0,0,0,0,0,0,0,0,0,0,0,0,0,0,0,0,0,0,0,0,0,0,0,0]}],[{"header":{"parameterUnit":"kt","parameterCategory":2,"dx":1,"dy":1,"la1":30.253999710083008,"la2":30.299108505249023,"lo1":-89.0895004272461,"lo2":-89.04439544677734,"nx":28,"ny":28,"refTime":"2022-10-11T21:00:00:Z","depth":0,"parameterNumber":2,"parameterNumberName":"V-component_of_WINDS"},"data":[-1.0392,-1.0448,-1.0447,-1.0512,-1.0523,-1.0568,-1.0584,-1.0606,-1.0623,-1.0679,-1.0712,-1.0719,-1.0739,-1.078,-1.0817,-1.0821,-1.0837,-1.0857,-1.0858,-1.0766,-1.0754,-1.0742,-1.0728,-1.086,-1.086,-1.0952,-1.0953,-1.0954,-1.0326,-1.0337,-1.037,-1.0403,-1.0432,-1.0413,-1.0438,-1.0465,-1.0507,-1.0529,-1.0561,-1.0611,-1.0651,-1.0665,-1.0705,-1.0734,-1.0728,-1.0745,-1.0744,-1.0747,-1.065,-1.0635,-1.0748,-1.0748,-1.0748,-1.0748,-1.0748,-1.0748,-1.0206,-1.024,-1.0258,-1.0295,-1.0312,-1.0334,-1.0367,-1.0374,-1.0409,-1.0448,-1.0442,-1.049,-1.0514,-1.0563,-1.058,-1.062,-1.0602,-1.0621,-1.0626,-1.0632,-1.0637,-1.0507,-1.0626,-1.0626,-1.0626,-1.0625,-1.0625,0,-1.0119,-1.0116,-1.0148,-1.018,-1.0207,-1.0232,-1.0256,-1.0276,-1.0273,-1.0302,-1.0345,-1.037,-1.042,-1.0462,-1.05,-1.0514,-1.05,-1.0499,-1.0512,-1.0516,-1.0515,-1.0518,-1.036,-1.0496,-1.0494,-1.0494,-1.0493,-1.0493,-0.9999,-1.0038,-1.0057,-1.008,-1.0092,-1.013,-1.0152,-1.0146,-1.017,-1.02,-1.0232,-1.0272,-1.0305,-1.0375,-1.0386,-1.0425,-1.0419,-1.0471,-1.0425,-1.0427,-1.0422,-1.0421,-1.0425,-1.0481,-1.0482,-1.0484,-1.0485,0,-0.9932,-0.9931,-0.9991,-1.0007,-1.0012,-1.0054,-1.0069,-1.0103,-1.0106,-1.0155,-1.0166,-1.0173,-1.0216,-1.0218,-1.0268,-1.0269,-1.0342,-1.0334,-1.0334,-1.0333,-1.0381,-1.0377,-1.0533,-1.0553,-1.0415,-1.0417,-1.0418,0,-0.9831,-0.9882,-0.9877,-0.9912,-0.9969,-0.996,-1.0018,-1.0027,-1.0046,-1.0083,-1.0066,-1.0102,-1.0099,-1.0136,-1.0137,-1.0197,-1.0206,-1.0211,-1.0211,-1.0213,-1.0213,-1.0229,-1.0223,-1.0207,-1.0206,-1.0205,-1.0204,0,-0.9727,-0.9784,-0.984,-0.9853,-0.9876,-0.9904,-0.9915,-0.9936,-0.9959,-0.9988,-1.0004,-1.004,-1.006,-1.009,-1.009,-1.0059,-1.0163,-1.012,-1.0168,-1.0168,-1.0192,-1.0191,-1.0326,-1.0203,-1.0203,-1.0203,-1.0203,0,-0.9645,-0.9672,-0.9754,-0.9772,-0.9788,-0.9826,-0.9859,-0.9891,-0.9915,-0.9917,-0.9941,-0.993,-0.9981,-0.9939,-1.001,-0.997,-0.9991,-1.0,-1.0003,-1.001,-0.9963,-1.0041,-1.0168,-1.0182,-1.0014,-1.0012,-1.0011,0,-0.9528,-0.9609,-0.9601,-0.9679,-0.9717,-0.9693,-0.9736,-0.9756,-0.9762,-0.9797,-0.9804,-0.9844,-0.9812,-0.9826,-0.986,-0.987,-0.9923,-0.9863,-0.9918,-0.992,-0.9913,-1.003,-1.0049,-1.0139,-0.999,-0.9993,-0.9994,0,-0.9437,-0.9462,-0.9476,-0.9491,-0.9515,-0.9547,-0.9595,-0.9631,-0.9655,-0.968,-0.9721,-0.9777,-0.9757,-0.9778,-0.9774,-0.981,-0.9887,-0.9783,-0.9784,-0.9803,-0.998,-0.9998,-1.0013,-0.9876,-0.9879,-0.9881,-0.9978,0,-0.9315,-0.9355,-0.9393,-0.9426,-0.945,-0.9498,-0.9497,-0.9524,-0.9515,-0.952,-0.9581,-0.9599,-0.9639,-0.9656,-0.9649,-0.973,-0.9718,-0.9695,-0.9655,-0.9731,-0.9764,-0.9777,-0.9607,-0.9606,-0.9605,-0.9604,0,0,-0.9204,-0.9261,-0.9251,-0.9296,-0.9316,-0.929,-0.9342,-0.9359,-0.9395,-0.941,-0.9387,-0.9469,-0.9486,-0.9561,-0.9584,-0.96,-0.9615,-0.9589,-0.9695,-0.9705,-0.9714,-0.9749,-0.9762,-0.9602,-0.9602,-0.9602,-0.9601,0,-0.916,-0.9172,-0.9222,-0.9239,-0.9262,-0.9264,-0.9276,-0.9296,-0.9301,-0.9359,-0.934,-0.9377,-0.9442,-0.9463,-0.9482,-0.9579,-0.9564,-0.9591,-0.9643,-0.9685,-0.9696,-0.9706,-0.9742,-0.9755,-0.9599,-0.9599,-0.9599,0,-0.907,-0.9083,-0.9107,-0.9149,-0.9165,-0.9204,-0.9161,-0.9205,-0.9235,-0.9207,-0.9266,-0.9277,-0.9304,-0.9374,-0.9405,-0.9386,-0.9517,-0.9475,-0.9481,-0.9485,-0.9526,-0.954,-0.9552,-0.9392,-0.9391,-0.939,0,0,-0.9032,-0.9068,-0.9081,-0.9139,-0.915,-0.9153,-0.9174,-0.9168,-0.919,-0.92,-0.9213,-0.9238,-0.9276,-0.9302,-0.9338,-0.9414,-0.942,-0.9449,-0.9459,-0.9467,-0.9476,-0.9518,-0.9532,-0.9387,-0.9387,-0.9387,0,0,-0.9015,-0.903,-0.9016,-0.9084,-0.9105,-0.9123,-0.9159,-0.9144,-0.9176,-0.917,-0.9164,-0.917,-0.9235,-0.9247,-0.921,-0.9324,-0.9284,-0.9293,-0.9314,-0.9326,-0.9336,-0.9332,-0.917,0,0,0,0,0,-0.8968,-0.9028,-0.9015,-0.9026,-0.908,-0.9129,-0.9136,-0.913,-0.9102,-0.9132,-0.914,-0.9121,-0.9226,-0.9192,-0.9205,-0.9247,-0.9352,-0.9358,-0.9364,-0.9408,-0.9421,-0.9432,0,0,0,0,0,0,-0.8972,-0.8986,-0.9014,-0.9033,-0.9045,-0.9127,-0.9078,-0.9078,-0.9099,-0.9094,-0.912,-0.9122,-0.912,-0.9186,-0.9197,-0.9237,-0.9166,-0.9354,-0.936,-0.9364,-0.9413,-0.9423,-0.9432,0,0,0,0,0,-0.8976,-0.8986,-0.9074,-0.9033,-0.9043,-0.905,-0.9075,-0.9075,-0.9092,-0.9105,-0.9106,-0.9085,-0.9121,-0.913,-0.9192,-0.9232,-0.9159,-0.9163,-0.9358,-0.9362,-0.9366,-0.9418,0,0,0,0,0,0,-0.8978,-0.8987,-0.9076,-0.9079,-0.9009,-0.9045,-0.905,-0.9073,-0.9101,-0.9103,-0.9069,-0.9065,-0.9123,-0.913,-0.9137,-0.9231,-0.9152,-0.9156,-0.9159,-0.9361,-0.9364,-0.9367,0,0,0,0,0,0,-0.8981,-0.899,-0.9078,-0.9048,-0.9048,-0.9041,-0.9046,-0.9098,-0.9102,-0.9064,-0.9061,-0.9067,-0.9113,-0.913,-0.9135,-0.9217,-0.9147,-0.9151,-0.9154,-0.9156,-0.9364,-0.9366,0,0,0,0,0,0,-0.8985,-0.8992,-0.9047,-0.9047,-0.9047,-0.9081,-0.9087,-0.9144,-0.9074,-0.9063,-0.9068,-0.9065,-0.9114,-0.9119,-0.9134,-0.9213,-0.9216,-0.9147,-0.915,-0.9152,-0.9153,0,0,0,0,0,0,0,-0.8988,-0.8939,-0.9057,-0.9046,-0.9046,-0.9108,-0.9109,-0.911,-0.9073,-0.9071,-0.9068,-0.9066,-0.9124,-0.9128,-0.9133,-0.9211,0,0,-0.9147,-0.9149,0,0,0,0,0,0,0,0,-0.8936,-0.8938,-0.9057,-0.9058,-0.9059,-0.9108,-0.9109,-0.9109,-0.9073,-0.9071,-0.9069,-0.9067,-0.9125,-0.9129,-0.9132,0,0,0,0,0,0,0,0,0,0,0,0,0,0,0,-0.9058,-0.9058,0,-0.9108,-0.9109,-0.9109,-0.9073,-0.9071,-0.9069,-0.9068,-0.9126,-0.9129,-0.9132,0,0,0,0,0,0,0,0,0,0,0,0,0,0,0,0,0,0,0,0,0,0,0,0,0,0,0,0,0,0,0,0,0,0,0,0,0,0,0,0,0,0,0,0,0,0,0,0,0,0,0,0,0,0,0,0,0,0,0,0,0,0,0,0,0,0,0,0,0]}]]]